Location: Fours
(44.3167°N, 6.7000°E)
Time: 06:23:15
(UTC+00:00)

Cosmos 2218 Rocket - Pass Details

Date: 04 June 2022
Orbit: 956 x 1005 km, 82.9° (Epoch: 03 July)

Event Time Altitude Azimuth Distance (km) Brightness Sun altitude
Rises 02:13:59 0° 348° (NNW) 3,690 7.6 -13.6°
Reaches altitude 10° 02:16:32 10° 344° (NNW) 2,745 6.8 -13.3°
Maximum altitude 02:22:40 57° 268° (W) 1,158 4.2 -12.6°
Enters shadow 02:28:42 11° 192° (SSW) 2,712 5.8 -11.9°
